Dades meteomassalio
Diari Summary for Maig 22, 2017 Units:  Metric    English   Both
« Previous Day
Next Day »
Diari Semanal Mensual Anual Personalitzat
  Maxima: Minima: Mijana:
Temperatura: 29.8 °C 13.4 °C 21.7 °C
Rosada: 14.3 °C 10.7 °C 12.3 °C
Humitat: 85 % 34 % 58 %
Velocitat del vent: 24.1 km/h 0.0 km/h 5.1 km/h
Racha vent: 24.1 km/h - -
Vent:- - East
Pressio: 1016.5 hPa 1013.1 hPa -
Pluja: 0.0 mm    
Historical Graphs
 
 
Tabular Data for Maig 22, 2017
Time Temperature Dew Point Pressure Wind Wind Speed Wind Gust Humidity Rainfall Rate (Hourly) solar Conditions
00:01 18.5 °C 11.8 °C 1015.5 hPa Calm     65 % 0.0 mm 0.0 W/m2 CLR
00:06 18.4 °C 11.7 °C 1015.5 hPa Calm     65 % 0.0 mm 0.0 W/m2 CLR
00:11 18.4 °C 11.7 °C 1015.5 hPa East 5.6 km/h 5.6 km/h 65 % 0.0 mm 0.0 W/m2 CLR
00:16 18.3 °C 11.8 °C 1015.5 hPa ENE 1.9 km/h 1.9 km/h 66 % 0.0 mm 0.0 W/m2 CLR
00:21 18.1 °C 11.7 °C 1015.5 hPa Calm     66 % 0.0 mm 0.0 W/m2 CLR
00:26 18.0 °C 11.8 °C 1015.5 hPa ENE 3.2 km/h 3.2 km/h 67 % 0.0 mm 0.0 W/m2 CLR
00:31 17.8 °C 11.8 °C 1015.1 hPa ENE 3.2 km/h 3.2 km/h 68 % 0.0 mm 0.0 W/m2 CLR
00:36 17.8 °C 11.8 °C 1015.1 hPa Calm     68 % 0.0 mm 0.0 W/m2 CLR
00:41 17.7 °C 11.7 °C 1015.5 hPa Calm     68 % 0.0 mm 0.0 W/m2 CLR
00:46 17.7 °C 11.7 °C 1015.1 hPa Calm     68 % 0.0 mm 0.0 W/m2 CLR
00:51 17.7 °C 11.7 °C 1015.1 hPa Calm     68 % 0.0 mm 0.0 W/m2 CLR
00:56 17.6 °C 11.8 °C 1014.8 hPa Calm     69 % 0.0 mm 0.0 W/m2 CLR
01:01 17.6 °C 11.8 °C 1014.8 hPa Calm     69 % 0.0 mm 0.0 W/m2 CLR
01:06 17.6 °C 11.8 °C 1014.8 hPa Calm     69 % 0.0 mm 0.0 W/m2 CLR
01:11 17.6 °C 11.8 °C 1014.8 hPa Calm     69 % 0.0 mm 0.0 W/m2 CLR
01:16 17.6 °C 11.8 °C 1014.4 hPa Calm     69 % 0.0 mm 0.0 W/m2 CLR
01:21 17.6 °C 11.8 °C 1014.4 hPa Calm     69 % 0.0 mm 0.0 W/m2 CLR
01:26 17.5 °C 11.7 °C 1014.4 hPa Calm     69 % 0.0 mm 0.0 W/m2 CLR
01:31 17.4 °C 11.8 °C 1014.8 hPa Calm     70 % 0.0 mm 0.0 W/m2 CLR
01:36 17.3 °C 11.8 °C 1014.8 hPa Calm     70 % 0.0 mm 0.0 W/m2 CLR
01:41 17.3 °C 11.9 °C 1014.8 hPa Calm     71 % 0.0 mm 0.0 W/m2 CLR
01:46 17.2 °C 11.9 °C 1014.8 hPa Calm     71 % 0.0 mm 0.0 W/m2 CLR
01:51 17.1 °C 11.8 °C 1014.8 hPa Calm     71 % 0.0 mm 0.0 W/m2 CLR
01:56 17.2 °C 11.9 °C 1014.4 hPa Calm     71 % 0.0 mm 0.0 W/m2 CLR
02:01 17.2 °C 12.1 °C 1014.8 hPa Calm     72 % 0.0 mm 0.0 W/m2 CLR
02:06 17.2 °C 12.1 °C 1014.4 hPa Calm     72 % 0.0 mm 0.0 W/m2 CLR
02:11 17.2 °C 12.1 °C 1014.8 hPa Calm     72 % 0.0 mm 0.0 W/m2 CLR
02:16 17.1 °C 11.9 °C 1014.8 hPa Calm     72 % 0.0 mm 0.0 W/m2 CLR
02:21 17.0 °C 11.9 °C 1014.8 hPa Calm     72 % 0.0 mm 0.0 W/m2 CLR
02:26 17.1 °C 11.9 °C 1014.4 hPa Calm     72 % 0.0 mm 0.0 W/m2 CLR
02:32 17.1 °C 11.9 °C 1014.8 hPa Calm     72 % 0.0 mm 0.0 W/m2 CLR
02:37 17.0 °C 11.9 °C 1014.4 hPa Calm     72 % 0.0 mm 0.0 W/m2 CLR
02:42 16.9 °C 11.8 °C 1014.4 hPa Calm     72 % 0.0 mm 0.0 W/m2 CLR
02:47 16.9 °C 12.1 °C 1014.4 hPa Calm     73 % 0.0 mm 0.0 W/m2 CLR
02:52 16.9 °C 12.0 °C 1014.4 hPa Calm     73 % 0.0 mm 0.0 W/m2 CLR
02:57 16.8 °C 11.9 °C 1014.4 hPa Calm     73 % 0.0 mm 0.0 W/m2 CLR
03:02 16.8 °C 11.9 °C 1014.4 hPa Calm     73 % 0.0 mm 0.0 W/m2 CLR
03:07 16.7 °C 11.8 °C 1014.4 hPa Calm     73 % 0.0 mm 0.0 W/m2 CLR
03:12 16.7 °C 11.8 °C 1014.4 hPa Calm     73 % 0.0 mm 0.0 W/m2 CLR
03:17 16.7 °C 11.8 °C 1014.1 hPa Calm     73 % 0.0 mm 0.0 W/m2 CLR
03:22 16.7 °C 11.8 °C 1014.1 hPa Calm     73 % 0.0 mm 0.0 W/m2 CLR
03:27 16.6 °C 11.9 °C 1014.4 hPa Calm     74 % 0.0 mm 0.0 W/m2 CLR
03:32 16.4 °C 11.8 °C 1014.1 hPa Calm     74 % 0.0 mm 0.0 W/m2 CLR
03:37 16.3 °C 11.8 °C 1014.1 hPa Calm     75 % 0.0 mm 0.0 W/m2 CLR
03:42 16.3 °C 11.8 °C 1014.1 hPa Calm     75 % 0.0 mm 0.0 W/m2 CLR
03:47 16.3 °C 11.9 °C 1014.1 hPa Calm     75 % 0.0 mm 0.0 W/m2 CLR
03:52 16.2 °C 12.0 °C 1014.1 hPa Calm     76 % 0.0 mm 0.0 W/m2 CLR
03:57 16.1 °C 11.9 °C 1014.1 hPa Calm     76 % 0.0 mm 0.0 W/m2 CLR
04:02 16.0 °C 11.8 °C 1014.1 hPa Calm     76 % 0.0 mm 0.0 W/m2 CLR
04:07 15.9 °C 11.8 °C 1014.1 hPa Calm     77 % 0.0 mm 0.0 W/m2 CLR
04:12 15.8 °C 11.8 °C 1014.1 hPa Calm     77 % 0.0 mm 0.0 W/m2 CLR
04:17 15.7 °C 11.7 °C 1014.1 hPa Calm     77 % 0.0 mm 0.0 W/m2 CLR
04:22 15.7 °C 11.9 °C 1014.4 hPa Calm     78 % 0.0 mm 0.0 W/m2 CLR
04:27 15.7 °C 11.7 °C 1014.4 hPa Calm     77 % 0.0 mm 0.0 W/m2 CLR
04:32 15.6 °C 11.7 °C 1014.8 hPa Calm     78 % 0.0 mm 0.0 W/m2 CLR
04:37 15.4 °C 11.8 °C 1014.8 hPa Calm     79 % 0.0 mm 0.0 W/m2 CLR
04:42 15.3 °C 11.7 °C 1014.8 hPa Calm     79 % 0.0 mm 0.0 W/m2 CLR
04:47 15.2 °C 11.6 °C 1014.8 hPa Calm     79 % 0.0 mm 0.0 W/m2 CLR
04:52 15.1 °C 11.5 °C 1014.8 hPa Calm     79 % 0.0 mm 0.0 W/m2 CLR
04:57 14.9 °C 11.4 °C 1014.8 hPa Calm     80 % 0.0 mm 0.0 W/m2 CLR
05:02 14.7 °C 11.3 °C 1014.8 hPa WNW 1.9 km/h 1.9 km/h 80 % 0.0 mm 0.0 W/m2 CLR
05:07 14.7 °C 11.5 °C 1014.8 hPa Calm     81 % 0.0 mm 0.0 W/m2 CLR
05:12 14.7 °C 11.3 °C 1014.8 hPa Calm     80 % 0.0 mm 0.0 W/m2 CLR
05:17 14.7 °C 11.3 °C 1014.8 hPa Calm     80 % 0.0 mm 0.0 W/m2 CLR
05:22 14.6 °C 11.3 °C 1014.8 hPa Calm     81 % 0.0 mm 0.0 W/m2 CLR
05:27 14.5 °C 11.3 °C 1014.8 hPa Calm     81 % 0.0 mm 0.0 W/m2 CLR
05:32 14.3 °C 11.3 °C 1014.8 hPa Calm     82 % 0.0 mm 0.0 W/m2 CLR
05:37 14.2 °C 11.2 °C 1015.1 hPa Calm     82 % 0.0 mm 0.0 W/m2 CLR
05:42 14.2 °C 11.1 °C 1015.1 hPa Calm     82 % 0.0 mm 0.0 W/m2 CLR
05:47 14.1 °C 11.1 °C 1015.1 hPa Calm     82 % 0.0 mm 0.0 W/m2 CLR
05:52 13.9 °C 11.1 °C 1015.1 hPa Calm     83 % 0.0 mm 0.0 W/m2 CLR
05:57 13.8 °C 11.0 °C 1015.1 hPa Calm     83 % 0.0 mm 0.0 W/m2 CLR
06:02 13.8 °C 11.2 °C 1015.1 hPa SW 5.6 km/h 5.6 km/h 84 % 0.0 mm 0.0 W/m2 CLR
06:03 13.8 °C 11.2 °C 1015.1 hPa SW 5.6 km/h   84 % 0.0 mm 0.0 W/m2 CLR
06:08 13.8 °C 11.2 °C 1015.5 hPa Calm     84 % 0.0 mm 0.0 W/m2 CLR
06:13 13.9 °C 11.1 °C 1015.5 hPa Calm     83 % 0.0 mm 0.0 W/m2 CLR
06:18 13.8 °C 11.0 °C 1015.5 hPa Calm     83 % 0.0 mm 0.0 W/m2 CLR
06:23 13.8 °C 11.1 °C 1015.5 hPa Calm     84 % 0.0 mm 0.0 W/m2 CLR
06:28 13.7 °C 11.1 °C 1015.5 hPa Calm     84 % 0.0 mm 0.0 W/m2 OVC
06:33 13.7 °C 11.1 °C 1015.5 hPa Calm     84 % 0.0 mm 0.0 W/m2 OVC
06:38 13.6 °C 10.8 °C 1015.8 hPa Calm     83 % 0.0 mm 5.0 W/m2 OVC
06:43 13.4 °C 10.8 °C 1016.1 hPa Calm     84 % 0.0 mm 9.0 W/m2 BKN
06:48 13.4 °C 10.7 °C 1016.1 hPa WSW 5.6 km/h 5.6 km/h 84 % 0.0 mm 12.0 W/m2 BKN
06:53 13.6 °C 11.1 °C 1016.5 hPa Calm     85 % 0.0 mm 18.0 W/m2 BKN
06:58 13.8 °C 11.3 °C 1016.5 hPa Calm     85 % 0.0 mm 25.0 W/m2 BKN
07:03 13.9 °C 11.4 °C 1016.1 hPa SW 1.9 km/h 1.9 km/h 85 % 0.0 mm 28.0 W/m2 BKN
07:08 14.0 °C 11.2 °C 1016.1 hPa Calm     83 % 0.0 mm 28.0 W/m2 BKN
07:13 13.9 °C 11.2 °C 1016.1 hPa Calm     84 % 0.0 mm 32.0 W/m2 BKN
07:18 14.0 °C 11.5 °C 1016.1 hPa Calm     85 % 0.0 mm 37.0 W/m2 BKN
07:23 14.1 °C 11.4 °C 1016.5 hPa Calm     84 % 0.0 mm 47.0 W/m2 SCT
07:28 14.1 °C 11.4 °C 1016.1 hPa Calm     84 % 0.0 mm 63.0 W/m2 SCT
07:33 14.2 °C 11.6 °C 1016.1 hPa Calm     84 % 0.0 mm 76.0 W/m2 FEW
07:38 14.5 °C 11.8 °C 1016.5 hPa Calm     84 % 0.0 mm 86.0 W/m2 FEW
07:43 14.7 °C 11.8 °C 1016.5 hPa Calm     83 % 0.0 mm 107.0 W/m2 CLR
07:48 14.9 °C 12.1 °C 1016.5 hPa Calm     83 % 0.0 mm 134.0 W/m2 CLR
07:53 15.3 °C 12.1 °C 1016.1 hPa Calm     81 % 0.0 mm 192.0 W/m2 CLR
07:58 15.4 °C 11.9 °C 1016.1 hPa Calm     80 % 0.0 mm 204.0 W/m2 CLR
08:03 15.5 °C 12.1 °C 1016.1 hPa Calm     80 % 0.0 mm 188.0 W/m2 CLR
08:08 15.7 °C 12.3 °C 1016.1 hPa Calm     80 % 0.0 mm 167.0 W/m2 CLR
08:14 16.1 °C 12.4 °C 1016.1 hPa Calm     79 % 0.0 mm 88.0 W/m2 CLR
08:19 16.3 °C 12.6 °C 1016.1 hPa Calm     79 % 0.0 mm 77.0 W/m2 CLR
08:24 16.4 °C 12.6 °C 1016.1 hPa Calm     78 % 0.0 mm 102.0 W/m2 CLR
08:28 16.5 °C 12.4 °C 1016.1 hPa SE 8.0 km/h 8.0 km/h 77 % 0.0 mm 265.0 W/m2 CLR
08:33 16.7 °C 12.4 °C 1016.1 hPa SE 7.4 km/h 7.4 km/h 76 % 0.0 mm 272.0 W/m2 CLR
08:38 17.1 °C 12.6 °C 1016.1 hPa Calm     75 % 0.0 mm 278.0 W/m2 CLR
08:39 17.1 °C 12.7 °C 1016.1 hPa Calm     75 % 0.0 mm 278.0 W/m2 CLR
08:44 17.5 °C 12.8 °C 1016.1 hPa Calm     74 % 0.0 mm 325.0 W/m2 CLR
08:49 17.8 °C 13.1 °C 1016.1 hPa Calm     74 % 0.0 mm 381.0 W/m2 CLR
08:54 18.2 °C 13.1 °C 1016.1 hPa Calm     72 % 0.0 mm 439.0 W/m2 CLR
08:59 18.6 °C 13.0 °C 1016.1 hPa Calm     70 % 0.0 mm 346.0 W/m2 CLR
09:04 18.8 °C 13.0 °C 1016.1 hPa ESE 4.8 km/h 4.8 km/h 69 % 0.0 mm 192.0 W/m2 CLR
09:09 18.8 °C 12.9 °C 1016.1 hPa Calm     69 % 0.0 mm 169.0 W/m2 CLR
09:10 18.8 °C 12.9 °C 1016.1 hPa Calm     69 % 0.0 mm 165.0 W/m2 CLR
09:15 18.7 °C 12.9 °C 1016.1 hPa SSW 4.8 km/h 4.8 km/h 69 % 0.0 mm 165.0 W/m2 CLR
09:20 18.8 °C 12.9 °C 1016.1 hPa Calm     69 % 0.0 mm 174.0 W/m2 CLR
09:25 18.8 °C 12.8 °C 1016.1 hPa Calm     68 % 0.0 mm 199.0 W/m2 CLR
09:30 18.9 °C 12.9 °C 1016.1 hPa Calm     68 % 0.0 mm 218.0 W/m2 CLR
09:35 19.1 °C 13.0 °C 1016.1 hPa Calm     68 % 0.0 mm 206.0 W/m2 CLR
09:40 19.1 °C 12.8 °C 1016.1 hPa Calm     67 % 0.0 mm 223.0 W/m2 CLR
09:45 19.3 °C 13.0 °C 1016.1 hPa Calm     67 % 0.0 mm 276.0 W/m2 CLR
09:50 19.6 °C 12.8 °C 1016.1 hPa Calm     65 % 0.0 mm 132.0 W/m2 CLR
09:55 19.9 °C 13.3 °C 1015.8 hPa Calm     66 % 0.0 mm 541.0 W/m2 CLR
10:00 20.4 °C 13.9 °C 1016.1 hPa Calm     66 % 0.0 mm 555.0 W/m2 CLR
10:05 20.8 °C 13.5 °C 1016.1 hPa Calm     63 % 0.0 mm 559.0 W/m2 CLR
10:10 21.2 °C 13.6 °C 1016.1 hPa Calm     62 % 0.0 mm 575.0 W/m2 CLR
10:15 21.2 °C 13.8 °C 1016.1 hPa Calm     63 % 0.0 mm 599.0 W/m2 CLR
10:20 21.6 °C 14.0 °C 1016.1 hPa Calm     62 % 0.0 mm 629.0 W/m2 CLR
10:25 22.1 °C 13.7 °C 1015.8 hPa Calm     59 % 0.0 mm 666.0 W/m2 CLR
10:30 22.3 °C 13.7 °C 1015.8 hPa Calm     58 % 0.0 mm 643.0 W/m2 CLR
10:35 22.4 °C 13.4 °C 1015.8 hPa ENE 3.7 km/h 3.7 km/h 57 % 0.0 mm 645.0 W/m2 CLR
10:40 22.6 °C 13.6 °C 1015.8 hPa Calm   0.2 km/h 57 % 0.0 mm 657.0 W/m2 CLR
10:45 22.8 °C 13.6 °C 1015.8 hPa ENE 7.4 km/h 7.4 km/h 56 % 0.0 mm 670.0 W/m2 CLR
10:50 22.9 °C 13.7 °C 1015.8 hPa ENE 1.9 km/h 1.9 km/h 56 % 0.0 mm 694.0 W/m2 CLR
10:55 23.2 °C 13.7 °C 1015.8 hPa ESE 3.7 km/h 3.7 km/h 55 % 0.0 mm 698.0 W/m2 CLR
11:00 23.4 °C 13.3 °C 1015.8 hPa East 5.6 km/h 5.6 km/h 53 % 0.0 mm 717.0 W/m2 CLR
11:01 23.4 °C 13.3 °C 1015.8 hPa East 5.6 km/h 5.6 km/h 53 % 0.0 mm 717.0 W/m2 CLR
11:06 23.3 °C 13.2 °C 1015.8 hPa NNE 7.4 km/h 7.4 km/h 53 % 0.0 mm 719.0 W/m2 CLR
11:11 23.6 °C 13.2 °C 1015.8 hPa NE 5.6 km/h 5.6 km/h 52 % 0.0 mm 737.0 W/m2 CLR
11:16 23.9 °C 12.8 °C 1015.8 hPa Calm     50 % 0.0 mm 763.0 W/m2 CLR
11:21 24.0 °C 12.9 °C 1015.8 hPa ENE 6.4 km/h 6.4 km/h 50 % 0.0 mm 768.0 W/m2 CLR
11:26 24.3 °C 12.9 °C 1015.8 hPa Calm     49 % 0.0 mm 773.0 W/m2 CLR
11:31 24.6 °C 13.5 °C 1015.8 hPa ENE 1.9 km/h 1.9 km/h 50 % 0.0 mm 779.0 W/m2 CLR
11:36 25.0 °C 12.9 °C 1015.8 hPa Calm     47 % 0.0 mm 780.0 W/m2 CLR
11:41 25.3 °C 13.5 °C 1015.8 hPa NE 5.6 km/h 5.6 km/h 48 % 0.0 mm 788.0 W/m2 CLR
11:46 25.3 °C 13.2 °C 1015.8 hPa NE 7.4 km/h 7.4 km/h 47 % 0.0 mm 798.0 W/m2 CLR
11:51 25.3 °C 13.2 °C 1015.8 hPa ENE 7.4 km/h 7.4 km/h 47 % 0.0 mm 810.0 W/m2 CLR
11:56 25.5 °C 13.3 °C 1015.8 hPa NE 6.4 km/h 6.4 km/h 47 % 0.0 mm 817.0 W/m2 CLR
12:01 25.7 °C 13.2 °C 1015.8 hPa Calm     46 % 0.0 mm 826.0 W/m2 CLR
12:06 25.8 °C 13.3 °C 1015.5 hPa NE 13.0 km/h 13.0 km/h 46 % 0.0 mm 833.0 W/m2 CLR
12:11 25.7 °C 12.9 °C 1015.5 hPa NNE 1.9 km/h 1.9 km/h 45 % 0.0 mm 842.0 W/m2 CLR
12:16 25.8 °C 13.3 °C 1015.8 hPa ENE 5.6 km/h 5.6 km/h 46 % 0.0 mm 847.0 W/m2 CLR
12:21 25.9 °C 13.1 °C 1015.5 hPa East 11.3 km/h 11.3 km/h 45 % 0.0 mm 854.0 W/m2 CLR
12:26 26.1 °C 13.2 °C 1015.5 hPa ENE 11.1 km/h 11.1 km/h 45 % 0.0 mm 865.0 W/m2 CLR
12:31 26.2 °C 13.0 °C 1015.5 hPa ENE 13.0 km/h 13.0 km/h 44 % 0.0 mm 870.0 W/m2 CLR
12:36 26.3 °C 13.4 °C 1015.5 hPa ENE 14.8 km/h 14.8 km/h 45 % 0.0 mm 877.0 W/m2 CLR
12:37 26.4 °C 13.5 °C 1015.5 hPa ENE 14.8 km/h 14.8 km/h 45 % 0.0 mm 879.0 W/m2 CLR
12:42 26.5 °C 13.6 °C 1015.1 hPa East 16.7 km/h 16.7 km/h 45 % 0.0 mm 882.0 W/m2 CLR
12:47 26.6 °C 13.7 °C 1015.1 hPa NE 13.0 km/h 13.0 km/h 45 % 0.0 mm 886.0 W/m2 CLR
12:52 26.9 °C 14.0 °C 1015.1 hPa SE 5.6 km/h 5.6 km/h 45 % 0.0 mm 895.0 W/m2 CLR
12:57 27.3 °C 14.3 °C 1015.1 hPa ENE 9.3 km/h 9.3 km/h 45 % 0.0 mm 895.0 W/m2 CLR
13:02 27.7 °C 14.3 °C 1014.8 hPa ESE 9.7 km/h 9.7 km/h 44 % 0.0 mm 905.0 W/m2 CLR
13:07 27.6 °C 13.2 °C 1014.8 hPa ESE 6.4 km/h 6.4 km/h 41 % 0.0 mm 907.0 W/m2 CLR
13:12 27.5 °C 13.1 °C 1014.8 hPa NE 3.7 km/h   41 % 0.0 mm 909.0 W/m2 CLR
13:17 27.7 °C 13.6 °C 1014.8 hPa East 7.4 km/h 7.4 km/h 42 % 0.0 mm 911.0 W/m2 CLR
13:22 27.8 °C 13.4 °C 1014.8 hPa East 9.3 km/h 9.3 km/h 41 % 0.0 mm 912.0 W/m2 CLR
13:27 27.8 °C 13.4 °C 1014.8 hPa NE 9.3 km/h 9.3 km/h 41 % 0.0 mm 919.0 W/m2 CLR
13:32 27.9 °C 13.4 °C 1014.8 hPa ENE 18.5 km/h 18.5 km/h 41 % 0.0 mm 919.0 W/m2 CLR
13:37 27.8 °C 13.7 °C 1014.8 hPa ENE 18.5 km/h 18.5 km/h 42 % 0.0 mm 919.0 W/m2 CLR
13:42 27.9 °C 13.4 °C 1014.8 hPa East 12.9 km/h 12.9 km/h 41 % 0.0 mm 925.0 W/m2 CLR
13:47 27.6 °C 13.9 °C 1014.8 hPa ESE 13.0 km/h 13.0 km/h 43 % 0.0 mm 926.0 W/m2 CLR
13:52 27.8 °C 13.3 °C 1014.4 hPa ESE 11.1 km/h 11.1 km/h 41 % 0.0 mm 925.0 W/m2 CLR
13:57 27.9 °C 14.2 °C 1014.4 hPa ENE 12.9 km/h 12.9 km/h 43 % 0.0 mm 930.0 W/m2 CLR
14:02 27.9 °C 13.8 °C 1014.4 hPa ENE 22.2 km/h 22.2 km/h 42 % 0.0 mm 930.0 W/m2 CLR
14:07 28.0 °C 14.3 °C 1014.4 hPa ENE 13.0 km/h 13.0 km/h 43 % 0.0 mm 928.0 W/m2 CLR
14:12 28.2 °C 13.3 °C 1014.4 hPa East 18.5 km/h 18.5 km/h 40 % 0.0 mm 930.0 W/m2 CLR
14:17 28.1 °C 13.6 °C 1014.1 hPa SE 16.7 km/h 16.7 km/h 41 % 0.0 mm 923.0 W/m2 CLR
14:22 28.1 °C 12.8 °C 1014.1 hPa ENE 13.0 km/h 13.0 km/h 39 % 0.0 mm 926.0 W/m2 CLR
14:27 28.0 °C 12.8 °C 1014.1 hPa North 14.8 km/h 14.8 km/h 39 % 0.0 mm 921.0 W/m2 CLR
14:32 28.3 °C 13.4 °C 1014.1 hPa ENE 12.9 km/h 12.9 km/h 40 % 0.0 mm 928.0 W/m2 CLR
14:37 28.2 °C 12.6 °C 1014.1 hPa East 13.0 km/h 13.0 km/h 38 % 0.0 mm 923.0 W/m2 CLR
14:42 28.0 °C 12.3 °C 1014.1 hPa East 18.5 km/h 18.5 km/h 38 % 0.0 mm 918.0 W/m2 CLR
14:47 28.3 °C 12.2 °C 1014.1 hPa ENE 13.0 km/h 13.0 km/h 37 % 0.0 mm 916.0 W/m2 CLR
14:52 28.6 °C 12.4 °C 1013.8 hPa ESE 19.3 km/h 19.3 km/h 37 % 0.0 mm 911.0 W/m2 CLR
14:57 28.4 °C 12.3 °C 1014.1 hPa East 5.6 km/h 5.6 km/h 37 % 0.0 mm 905.0 W/m2 CLR
15:02 28.5 °C 12.0 °C 1014.1 hPa NE 18.5 km/h 18.5 km/h 36 % 0.0 mm 900.0 W/m2 CLR
15:07 28.7 °C 12.6 °C 1014.1 hPa East 24.1 km/h 24.1 km/h 37 % 0.0 mm 893.0 W/m2 CLR
15:12 28.9 °C 13.2 °C 1014.1 hPa ENE 19.3 km/h 19.3 km/h 38 % 0.0 mm 886.0 W/m2 CLR
15:17 29.0 °C 12.8 °C 1013.8 hPa North 11.1 km/h 11.1 km/h 37 % 0.0 mm 879.0 W/m2 CLR
15:22 29.0 °C 12.4 °C 1013.8 hPa NE 22.2 km/h 22.2 km/h 36 % 0.0 mm 874.0 W/m2 CLR
15:23 29.0 °C 12.4 °C 1013.8 hPa NE 17.7 km/h 17.7 km/h 36 % 0.0 mm 874.0 W/m2 CLR
15:28 29.0 °C 12.4 °C 1013.8 hPa North 11.1 km/h 11.1 km/h 36 % 0.0 mm 865.0 W/m2 CLR
15:33 29.2 °C 12.6 °C 1013.8 hPa NNE 9.3 km/h 9.3 km/h 36 % 0.0 mm 860.0 W/m2 CLR
15:38 28.9 °C 12.3 °C 1013.8 hPa NE 14.8 km/h 14.8 km/h 36 % 0.0 mm 851.0 W/m2 CLR
15:43 28.8 °C 11.8 °C 1013.8 hPa NNE 9.3 km/h 9.3 km/h 35 % 0.0 mm 846.0 W/m2 CLR
15:48 29.0 °C 11.6 °C 1013.8 hPa East 13.0 km/h 13.0 km/h 34 % 0.0 mm 837.0 W/m2 CLR
15:53 28.9 °C 12.4 °C 1013.8 hPa NE 11.1 km/h 11.1 km/h 36 % 0.0 mm 828.0 W/m2 CLR
15:58 29.1 °C 12.4 °C 1013.8 hPa NE 13.0 km/h 13.0 km/h 36 % 0.0 mm 819.0 W/m2 CLR
16:03 29.2 °C 12.6 °C 1013.4 hPa NE 14.8 km/h 14.8 km/h 36 % 0.0 mm 809.0 W/m2 CLR
16:08 29.6 °C 12.9 °C 1013.4 hPa NE 5.6 km/h 5.6 km/h 36 % 0.0 mm 796.0 W/m2 CLR
16:13 29.8 °C 12.7 °C 1013.4 hPa NE 14.8 km/h 14.8 km/h 35 % 0.0 mm 788.0 W/m2 CLR
16:18 29.4 °C 12.8 °C 1013.4 hPa ENE 9.7 km/h 9.7 km/h 36 % 0.0 mm 779.0 W/m2 CLR
16:23 29.4 °C 13.2 °C 1013.4 hPa NE 24.1 km/h 24.1 km/h 37 % 0.0 mm 765.0 W/m2 CLR
16:28 29.2 °C 13.0 °C 1013.4 hPa East 14.8 km/h 14.8 km/h 37 % 0.0 mm 756.0 W/m2 CLR
16:33 29.0 °C 13.2 °C 1013.4 hPa ENE 3.7 km/h 3.7 km/h 38 % 0.0 mm 745.0 W/m2 CLR
16:38 28.9 °C 12.8 °C 1013.4 hPa NE 12.9 km/h 12.9 km/h 37 % 0.0 mm 735.0 W/m2 CLR
16:43 28.9 °C 12.3 °C 1013.4 hPa NE 24.1 km/h 24.1 km/h 36 % 0.0 mm 722.0 W/m2 CLR
16:48 29.0 °C 12.8 °C 1013.4 hPa NE 9.3 km/h 9.3 km/h 37 % 0.0 mm 710.0 W/m2 CLR
16:53 29.1 °C 12.5 °C 1013.4 hPa ENE 20.9 km/h 20.9 km/h 36 % 0.0 mm 701.0 W/m2 CLR
16:58 29.3 °C 12.7 °C 1013.4 hPa ENE 11.1 km/h 11.1 km/h 36 % 0.0 mm 689.0 W/m2 CLR
17:03 29.2 °C 13.1 °C 1013.4 hPa ENE 14.8 km/h 14.8 km/h 37 % 0.0 mm 675.0 W/m2 CLR
17:08 28.9 °C 12.4 °C 1013.4 hPa East 11.1 km/h 11.1 km/h 36 % 0.0 mm 659.0 W/m2 CLR
17:13 28.8 °C 12.6 °C 1013.1 hPa North 11.1 km/h 11.1 km/h 37 % 0.0 mm 645.0 W/m2 CLR
17:18 28.9 °C 13.2 °C 1013.1 hPa NE 13.0 km/h 13.0 km/h 38 % 0.0 mm 633.0 W/m2 CLR
17:23 29.1 °C 12.9 °C 1013.4 hPa NE 11.1 km/h 11.1 km/h 37 % 0.0 mm 624.0 W/m2 CLR
17:28 29.4 °C 12.8 °C 1013.1 hPa North 7.4 km/h 7.4 km/h 36 % 0.0 mm 610.0 W/m2 CLR
17:33 29.5 °C 12.8 °C 1013.4 hPa ENE 7.4 km/h 7.4 km/h 36 % 0.0 mm 594.0 W/m2 CLR
17:38 29.6 °C 13.3 °C 1013.1 hPa ESE 3.7 km/h 3.7 km/h 37 % 0.0 mm 580.0 W/m2 CLR
17:43 29.4 °C 13.2 °C 1013.1 hPa East 9.7 km/h 9.7 km/h 37 % 0.0 mm 568.0 W/m2 CLR
17:48 29.1 °C 12.9 °C 1013.1 hPa ENE 12.9 km/h 12.9 km/h 37 % 0.0 mm 548.0 W/m2 CLR
17:53 28.7 °C 12.6 °C 1013.1 hPa East 9.3 km/h 9.3 km/h 37 % 0.0 mm 534.0 W/m2 CLR
17:58 28.5 °C 12.4 °C 1013.1 hPa Calm     37 % 0.0 mm 522.0 W/m2 CLR
18:03 28.7 °C 12.6 °C 1013.1 hPa East 7.4 km/h 7.4 km/h 37 % 0.0 mm 510.0 W/m2 CLR
18:08 28.9 °C 13.2 °C 1013.1 hPa ESE 1.9 km/h 1.9 km/h 38 % 0.0 mm 468.0 W/m2 CLR
18:13 29.1 °C 12.9 °C 1013.1 hPa ESE 5.6 km/h 5.6 km/h 37 % 0.0 mm 439.0 W/m2 CLR
18:18 29.0 °C 12.4 °C 1013.1 hPa Calm     36 % 0.0 mm 459.0 W/m2 CLR
18:23 28.9 °C 13.2 °C 1013.1 hPa East 9.7 km/h 9.7 km/h 38 % 0.0 mm 446.0 W/m2 CLR
18:28 28.6 °C 13.2 °C 1013.1 hPa ESE 7.4 km/h 7.4 km/h 39 % 0.0 mm 422.0 W/m2 CLR
18:33 28.2 °C 13.3 °C 1013.1 hPa ESE 11.1 km/h 11.1 km/h 40 % 0.0 mm 404.0 W/m2 CLR
18:38 28.2 °C 13.3 °C 1013.1 hPa East 5.6 km/h 5.6 km/h 40 % 0.0 mm 396.0 W/m2 CLR
18:43 28.2 °C 12.6 °C 1013.1 hPa ESE 7.4 km/h 7.4 km/h 38 % 0.0 mm 380.0 W/m2 CLR
18:48 28.1 °C 12.0 °C 1013.1 hPa ESE 7.4 km/h 7.4 km/h 37 % 0.0 mm 364.0 W/m2 CLR
18:53 27.8 °C 13.0 °C 1013.1 hPa ESE 7.4 km/h 7.4 km/h 40 % 0.0 mm 348.0 W/m2 CLR
18:58 27.8 °C 13.0 °C 1013.1 hPa ESE 9.3 km/h 9.3 km/h 40 % 0.0 mm 334.0 W/m2 CLR
19:03 27.8 °C 12.6 °C 1013.1 hPa East 13.0 km/h 13.0 km/h 39 % 0.0 mm 322.0 W/m2 CLR
19:08 27.7 °C 13.2 °C 1013.1 hPa East 13.0 km/h 13.0 km/h 41 % 0.0 mm 304.0 W/m2 CLR
19:13 27.3 °C 13.3 °C 1013.1 hPa East 11.1 km/h 11.1 km/h 42 % 0.0 mm 287.0 W/m2 CLR
19:18 27.3 °C 13.3 °C 1013.1 hPa ESE 13.0 km/h 13.0 km/h 42 % 0.0 mm 271.0 W/m2 CLR
19:23 27.2 °C 13.2 °C 1013.1 hPa East 13.0 km/h 13.0 km/h 42 % 0.0 mm 253.0 W/m2 CLR
19:28 26.9 °C 12.9 °C 1013.4 hPa East 11.1 km/h 11.1 km/h 42 % 0.0 mm 237.0 W/m2 CLR
19:33 26.8 °C 12.8 °C 1013.4 hPa East 13.0 km/h 13.0 km/h 42 % 0.0 mm 223.0 W/m2 CLR
19:38 26.7 °C 12.7 °C 1013.4 hPa East 7.4 km/h 7.4 km/h 42 % 0.0 mm 207.0 W/m2 CLR
19:43 26.6 °C 12.6 °C 1013.4 hPa ESE 11.1 km/h 11.1 km/h 42 % 0.0 mm 190.0 W/m2 CLR
19:49 26.2 °C 12.3 °C 1013.8 hPa East 11.3 km/h 11.3 km/h 42 % 0.0 mm 174.0 W/m2 CLR
19:54 25.8 °C 12.3 °C 1013.8 hPa ENE 7.4 km/h 7.4 km/h 43 % 0.0 mm 156.0 W/m2 CLR
19:59 25.5 °C 12.0 °C 1013.8 hPa ESE 9.7 km/h 9.7 km/h 43 % 0.0 mm 141.0 W/m2 CLR
20:04 25.4 °C 12.2 °C 1013.8 hPa East 3.7 km/h 3.7 km/h 44 % 0.0 mm 127.0 W/m2 CLR
20:09 25.2 °C 11.7 °C 1013.8 hPa ENE 9.3 km/h 9.3 km/h 43 % 0.0 mm 111.0 W/m2 CLR
20:14 24.9 °C 11.8 °C 1013.8 hPa East 13.0 km/h 13.0 km/h 44 % 0.0 mm 93.0 W/m2 CLR
20:19 24.6 °C 11.6 °C 1013.8 hPa SE 6.4 km/h 6.4 km/h 44 % 0.0 mm 81.0 W/m2 FEW
20:24 24.4 °C 11.4 °C 1013.8 hPa SE 13.0 km/h 13.0 km/h 44 % 0.0 mm 70.0 W/m2 FEW
20:25 24.4 °C 11.7 °C 1013.8 hPa East 13.0 km/h 13.0 km/h 45 % 0.0 mm 67.0 W/m2 FEW
20:29 24.3 °C 11.6 °C 1013.8 hPa ESE 11.1 km/h 11.1 km/h 45 % 0.0 mm 62.0 W/m2 SCT
20:30 24.3 °C 11.6 °C 1013.8 hPa East 8.0 km/h 8.0 km/h 45 % 0.0 mm 56.0 W/m2 SCT
20:35 24.2 °C 11.6 °C 1014.1 hPa ESE 8.0 km/h 9.0 km/h 45 % 0.0 mm 42.0 W/m2 SCT
20:41 24.1 °C 11.4 °C 1014.1 hPa East 9.3 km/h 9.3 km/h 45 % 0.0 mm 37.0 W/m2 BKN
20:46 23.9 °C 11.3 °C 1014.1 hPa ESE 9.7 km/h 9.7 km/h 45 % 0.0 mm 28.0 W/m2 BKN
20:51 23.7 °C 11.4 °C 1014.1 hPa East 7.4 km/h 7.4 km/h 46 % 0.0 mm 23.0 W/m2 BKN
20:56 23.6 °C 11.6 °C 1014.1 hPa ESE 14.8 km/h 14.8 km/h 47 % 0.0 mm 18.0 W/m2 BKN
21:01 23.3 °C 11.4 °C 1014.1 hPa ESE 9.3 km/h 9.3 km/h 47 % 0.0 mm 14.0 W/m2 BKN
21:06 23.2 °C 11.3 °C 1014.4 hPa ESE 6.4 km/h 6.4 km/h 47 % 0.0 mm 11.0 W/m2 BKN
21:11 23.1 °C 11.4 °C 1014.4 hPa ESE 7.4 km/h 7.4 km/h 48 % 0.0 mm 7.0 W/m2 BKN
21:16 22.9 °C 11.3 °C 1014.4 hPa ESE 5.6 km/h 5.6 km/h 48 % 0.0 mm 5.0 W/m2 OVC
21:21 22.8 °C 11.2 °C 1014.4 hPa ESE 13.0 km/h 13.0 km/h 48 % 0.0 mm 0.0 W/m2 OVC
21:26 22.5 °C 11.2 °C 1014.4 hPa East 13.0 km/h 13.0 km/h 49 % 0.0 mm 0.0 W/m2 OVC
21:31 22.4 °C 11.2 °C 1014.4 hPa East 6.4 km/h 6.4 km/h 49 % 0.0 mm 0.0 W/m2 CLR
21:36 22.2 °C 11.3 °C 1014.8 hPa Calm     50 % 0.0 mm 0.0 W/m2 CLR
21:41 22.1 °C 11.2 °C 1014.8 hPa East 5.6 km/h 5.6 km/h 50 % 0.0 mm 0.0 W/m2 CLR
21:46 21.8 °C 11.2 °C 1014.8 hPa Calm     51 % 0.0 mm 0.0 W/m2 CLR
21:51 21.7 °C 11.4 °C 1015.1 hPa Calm     52 % 0.0 mm 0.0 W/m2 CLR
21:56 21.6 °C 11.3 °C 1015.1 hPa ENE 8.0 km/h 8.0 km/h 52 % 0.0 mm 0.0 W/m2 CLR
22:01 21.3 °C 11.3 °C 1015.1 hPa ENE 5.6 km/h 5.6 km/h 53 % 0.0 mm 0.0 W/m2 CLR
22:06 21.2 °C 11.3 °C 1015.1 hPa Calm     53 % 0.0 mm 0.0 W/m2 CLR
22:11 21.1 °C 11.2 °C 1015.5 hPa Calm     53 % 0.0 mm 0.0 W/m2 CLR
22:16 21.0 °C 11.3 °C 1015.5 hPa ESE 5.6 km/h 5.6 km/h 54 % 0.0 mm 0.0 W/m2 CLR
22:21 20.9 °C 11.2 °C 1015.8 hPa East 8.0 km/h 8.0 km/h 54 % 0.0 mm 0.0 W/m2 CLR
22:26 20.8 °C 11.4 °C 1015.8 hPa ENE 9.3 km/h 9.3 km/h 55 % 0.0 mm 0.0 W/m2 CLR
22:31 20.5 °C 11.4 °C 1015.8 hPa Calm     56 % 0.0 mm 0.0 W/m2 CLR
22:36 20.4 °C 11.6 °C 1015.8 hPa Calm     57 % 0.0 mm 0.0 W/m2 CLR
22:41 20.2 °C 11.4 °C 1016.1 hPa Calm     57 % 0.0 mm 0.0 W/m2 CLR
22:46 20.0 °C 11.5 °C 1016.1 hPa Calm     58 % 0.0 mm 0.0 W/m2 CLR
22:51 19.8 °C 11.6 °C 1016.1 hPa Calm     59 % 0.0 mm 0.0 W/m2 CLR
22:56 19.7 °C 11.5 °C 1016.1 hPa Calm     59 % 0.0 mm 0.0 W/m2 CLR
23:02 19.6 °C 11.6 °C 1016.1 hPa Calm     60 % 0.0 mm 0.0 W/m2 CLR
23:03 19.6 °C 11.6 °C 1016.1 hPa Calm     60 % 0.0 mm 0.0 W/m2 CLR
23:08 19.5 °C 11.8 °C 1016.1 hPa Calm     61 % 0.0 mm 0.0 W/m2 CLR
23:13 19.4 °C 11.7 °C 1016.1 hPa SE 7.4 km/h 7.4 km/h 61 % 0.0 mm 0.0 W/m2 CLR
23:18 19.3 °C 11.9 °C 1016.1 hPa Calm     62 % 0.0 mm 0.0 W/m2 CLR
23:23 19.2 °C 11.8 °C 1016.1 hPa Calm     62 % 0.0 mm 0.0 W/m2 CLR
23:28 19.2 °C 11.7 °C 1016.5 hPa Calm     62 % 0.0 mm 0.0 W/m2 CLR
23:33 19.1 °C 11.8 °C 1016.5 hPa Calm     63 % 0.0 mm 0.0 W/m2 CLR
23:38 18.9 °C 11.7 °C 1016.5 hPa Calm     63 % 0.0 mm 0.0 W/m2 CLR
23:43 18.8 °C 11.9 °C 1016.5 hPa Calm     64 % 0.0 mm 0.0 W/m2 CLR
23:48 18.8 °C 11.9 °C 1016.5 hPa SE 5.6 km/h 5.6 km/h 64 % 0.0 mm 0.0 W/m2 CLR
23:53 18.8 °C 12.1 °C 1016.5 hPa ESE 5.6 km/h 5.6 km/h 65 % 0.0 mm 0.0 W/m2 CLR
23:58 18.7 °C 12.2 °C 1016.5 hPa Calm     66 % 0.0 mm 0.0 W/m2 CLR
Lo Temps de Massalio
Compliments of Weather Underground - 1.25 mb